Find Starlink 32042

NORAD ID: 60108 Int'l Des: 2024-117 Owner: SPXS Country: US Constellation: starlink operational
LEOCIRCULAR

現在のビュー

3D地球を読み込み中...

About Starlink 32042

Starlink 32042 (NORAD 60108) is a starlink constellation satellite (v2 mini) launched Jun 23, 2024 by SPXS of US. It operates in LEO, CIRCULAR orbit with a mass of 730.00 kg.

次回通過

Passes for default location (London). Set your location on the main map for personalized predictions.

高度履歴

Loading altitude history...

軌道要素

1 60108U 24117T 26264.13695851 .00002626 00000-0 88740-4 0 9995
2 60108 53.1600 206.9257 0001109 105.3669 254.7456 15.34433047126842
Epoch: Sep 21, 2026 • Age: 31 hours

現在のステータス

高度 480.4 km
遠地点 / 近地点 N/A
速度 7.62 km/s
衛星直下点 -49.42°S, 14.48°W
打ち上げ日 Jun 23, 2024
運用期間 2.2 years
タイプ internet

技術仕様

分類 Payload
質量 730.00 kg
乾燥質量 700.00 kg
長さ 0.30 m
スパン 29.00 m
形状 ? Box + pan
製造者 SPXS
バスタイプ Starlink V2M
フェーズステータス In Orbit
所有者/国 SPXS/US

Most Searched